Regional Weather Roundup
Issued by NWS

Home | Current Version | Previous Version | Text Only | Print | Product List | Glossary On
Versions: 1 2 3 4 5 6 7 8 9 10 11 12 13 14 15 16 17 18 19 20 21 22 23 24 25 26 27 28 29 30 31 32 33 34 35 36 37 38 39 40 41 42 43 44 45 46 47 48 49 50
000
ASUS43 KLSX 210907
RWRMO

WEATHER SUMMARY FOR MISSOURI
NATIONAL WEATHER SERVICE SPRINGFIELD MO
400 AM CDT TUE APR 21 2015

NOTE: "FAIR" INDICATES FEW OR NO CLOUDS BELOW 12,000 FEET WITH NO
       SIGNIFICANT WEATHER AND/OR OBSTRUCTIONS TO VISIBILITY.
       CURRENT SKY AND/OR WEATHER CONDITIONS ARE NOT AVAILABLE FOR
       CHILLICOTHE AND FARMINGTON.

MOZ001>031-035>038-043-044-053-054-211000-
...NORTHERN AND WESTERN MISSOURI...

CITY           SKY/WX    TMP DP  RH WIND       PRES   REMARKS
KANSAS CTY INT MOCLDY    41  31  67 W8        29.85R
KANSAS C DTWN  MOCLDY    48  32  53 W7        29.86R
LEE`S SUMMIT   MOCLDY    46  32  58 SW6       29.86S
ST JOSEPH      CLOUDY    46  31  55 W9        29.84F
CHILLICOTHE      N/A     45  30  55 VRB3      29.83R
KIRKSVILLE     MOCLDY    44  27  51 W8        29.79R

$$
MOZ066>068-077>081-088>096-101>105-211000-
...SOUTHWEST MISSOURI...

CITY           SKY/WX    TMP DP  RH WIND       PRES   REMARKS
SPRINGFIELD    CLEAR     42  33  70 SW9       29.90F
JOPLIN         CLEAR     47  37  68 SW9       29.92S

$$
MOZ032>034-039>042-045>050-055>058-069>072-211000-
...CENTRAL MISSOURI...

CITY           SKY/WX    TMP DP  RH WIND       PRES   REMARKS
COLUMBIA       CLEAR     45  31  58 W9        29.83S
JEFFERSON CITY CLEAR     46  29  51 CALM      29.85S
ROLLA          CLEAR     40  29  64 SW12      29.85S
SEDALIA        CLEAR     46  33  60 SW13      29.85F
WHITEMAN AFB   PTCLDY    46  33  59 W8        29.84S
WARRENSBURG    PTCLDY    45  32  61 SW9       29.85S
OSAGE BEACH    CLEAR     45  28  53 SW6       29.87S

$$
MOZ051-052-059>065-211000-
...EAST CENTRAL MISSOURI...

CITY           SKY/WX    TMP DP  RH WIND       PRES   REMARKS
ST LOUIS INTL  PTCLDY    49  27  42 SW13      29.82S
SPIRIT OF STL  CLEAR     46  28  49 SW12      29.82S
ST CHARLES     PTCLDY    43  31  62 W3        29.81S

$$
MOZ072>076-082>087-097>100-106>115-211000-
...SOUTH CENTRAL AND SOUTHEAST MISSOURI...

CITY           SKY/WX    TMP DP  RH WIND       PRES   REMARKS
CAPE GIRARDEAU CLEAR     45  37  73 SW7       29.91S
FARMINGTON     CLEAR     43  27  52 CALM      29.91S
POPLAR BLUFF   CLEAR     45  33  63 SW6       29.92S
WEST PLAINS    CLEAR     41  30  65 SW5       29.93S

$$


USA.gov is the U.S. government's official web portal to all federal, state and local government web resources and services.